This demonstration page uses our WeatherBlox Daily Observations layout. Learn more.

Left ArrowRight Arrow

40.92945, -100.16068

Hourly Observations for June 4, 2016

Temp ( °F °C ) Dew Point ( °F °C ) Humidity (%) Winds ( mph kmh ) Pressure ( in mb ) Visibility ( mi km ) Precip ( " mm )
12:15 am 00:15 Partly Cloudy 59 15.1 52 11.1 77 77 WNW 8 13 30.03 1017 10 16 N/A
12:35 am 00:35 Clear 59 14.8 51 10.6 76 76 WNW 6 9 30.03 1017 10 16 N/A
12:55 am 00:55 Clear 58 14.3 50 10.1 76 76 WNW 7 11 30.03 1017 10 16 N/A
1:15 am 01:15 Clear 58 14.2 51 10.4 78 78 NW 3 6 30.03 1017 10 16 N/A
1:35 am 01:35 Clear 57 14.1 50 10.1 77 77 WNW 3 6 30.06 1018 10 16 N/A
1:55 am 01:55 Clear 56 13.3 49 9.6 78 78 WNW 7 11 30.09 1019 10 16 N/A
2:15 am 02:15 Clear 55 12.7 49 9.5 81 81 NW 7 11 30.09 1019 10 16 N/A
2:40 am 02:40 Clear 55 12.8 48 9.1 78 78 NW 7 11 30.06 1018 10 16 N/A
2:55 am 02:55 Clear 55 12.8 48 9.1 78 78 NW 8 13 30.06 1018 10 16 N/A
3:15 am 03:15 Clear 55 12.7 48 9.1 79 79 NW 8 13 30.06 1018 10 16 N/A
3:35 am 03:35 Clear 54 12.2 48 8.7 79 79 NW 8 13 30.06 1018 10 16 N/A
3:55 am 03:55 Clear 54 12 48 8.9 82 82 WNW 7 11 30.09 1019 10 16 N/A
4:15 am 04:15 Clear 53 11.9 48 9 83 83 WNW 8 13 30.09 1019 10 16 N/A
4:35 am 04:35 Clear 54 12.1 48 8.8 80 80 WNW 8 13 30.09 1019 10 16 N/A
4:55 am 04:55 Clear 54 12 48 8.7 80 80 WNW 8 13 30.09 1019 10 16 N/A
5:15 am 05:15 Clear 53 11.6 47 8.5 81 81 WNW 9 15 30.09 1019 10 16 N/A
5:35 am 05:35 Clear 54 12 47 8.2 78 78 WNW 9 15 30.09 1019 10 16 N/A
5:55 am 05:55 Clear 53 11.5 47 8.1 80 80 WNW 9 15 30.09 1019 10 16 N/A
6:15 am 06:15 Sunny 53 11.5 46 8 79 79 WNW 9 15 30.09 1019 10 16 N/A
6:35 am 06:35 Sunny 53 11.5 46 8 79 79 WNW 9 15 30.09 1019 10 16 N/A
6:55 am 06:55 Sunny 53 11.9 46 8 77 77 WNW 8 13 30.12 1020 10 16 N/A
7:15 am 07:15 Sunny 55 12.5 47 8.5 77 77 WNW 8 13 30.12 1020 10 16 N/A
7:35 am 07:35 Sunny 56 13.3 47 8.5 73 73 WNW 13 20 30.12 1020 10 16 N/A
7:55 am 07:55 Sunny 58 14.2 47 8.5 69 69 WNW 13 20 30.12 1020 10 16 N/A
8:15 am 08:15 Sunny 59 15 47 8.4 65 65 WNW 15 24 30.09 1019 10 16 N/A
8:35 am 08:35 Sunny 61 16.2 47 8.6 61 61 WNW 12 19 30.09 1019 10 16 N/A
8:55 am 08:55 Sunny 63 17.3 48 8.9 58 58 NW 13 20 30.09 1019 10 16 N/A
9:15 am 09:15 Sunny 65 18.3 48 9.1 55 55 NW 13 20 30.06 1018 10 16 N/A
9:35 am 09:35 Sunny 67 19.5 49 9.5 53 53 NW 15 24 30.06 1018 10 16 N/A
9:55 am 09:55 Sunny 69 20.4 51 10.6 54 54 NW 12 19 30.06 1018 10 16 N/A
10:15 am 10:15 Sunny 71 21.5 47 8.6 44 44 NNW 17 28 30.03 1017 10 16 N/A
10:35 am 10:35 Sunny 71 21.8 47 8.1 42 42 NNW 20 31 30.03 1017 10 16 N/A
10:55 am 10:55 Sunny 72 22.2 47 8.5 42 42 N 18 30 30.03 1017 10 16 N/A
11:15 am 11:15 Sunny 73 22.5 45 7 37 37 NNW 22 35 30.03 1017 10 16 N/A
11:55 am 11:55 Partly Cloudy 74 23.1 45 7.1 36 36 NNW 24 39 30.03 1017 10 16 N/A
12:15 pm 12:15 Partly Cloudy 74 23.6 44 6.8 34 34 NNW 24 39 30.00 1016 10 16 N/A
12:35 pm 12:35 Partly Cloudy 75 24.1 44 6.5 32 32 NNW 26 43 30.00 1016 10 16 N/A
12:55 pm 12:55 Sunny 76 24.5 44 6.7 32 32 N 28 44 29.97 1015 7 11 N/A
1:15 pm 13:15 Sunny 76 24.6 43 6.2 31 31 NNW 24 39 29.97 1015 10 16 N/A
1:35 pm 13:35 Partly Cloudy 76 24.6 42 5.7 30 30 NNW 30 48 29.97 1015 10 16 N/A
1:55 pm 13:55 Sunny 77 24.8 43 6.2 30 30 NNW 21 33 29.97 1015 10 16 N/A
2:15 pm 14:15 Partly Cloudy 77 24.8 44 6.7 31 31 NNW 22 35 29.94 1014 10 16 N/A
2:35 pm 14:35 Sunny 77 25.1 44 6.9 31 31 NNW 21 33 29.94 1014 10 16 N/A
2:55 pm 14:55 Sunny 77 25.1 45 7 31 31 NNW 20 31 29.94 1014 10 16 N/A
3:15 pm 15:15 Sunny 78 25.4 44 6.7 30 30 N 25 41 29.94 1014 10 16 N/A
3:35 pm 15:35 Sunny 78 25.5 43 6.2 29 29 NNW 21 33 29.91 1013 10 16 N/A
3:55 pm 15:55 Sunny 78 25.5 42 5.5 28 28 NNW 24 39 29.91 1013 10 16 N/A
4:15 pm 16:15 Sunny 78 25.5 41 4.9 27 27 N 22 35 29.91 1013 10 16 N/A
4:35 pm 16:35 Sunny 78 25.5 42 5.5 28 28 N 18 30 29.91 1013 10 16 N/A
4:55 pm 16:55 Sunny 78 25.6 42 5.3 27 27 NNW 25 41 29.91 1013 10 16 N/A
5:15 pm 17:15 Sunny 78 25.5 42 5.5 28 28 N 20 31 29.91 1013 10 16 N/A
5:35 pm 17:35 Sunny 78 25.4 40 4.5 26 26 N 21 33 29.91 1013 10 16 N/A
5:55 pm 17:55 Sunny 77 25.2 40 4.5 26 26 N 20 31 29.91 1013 10 16 N/A
6:15 pm 18:15 Sunny 77 25 40 4.6 27 27 N 21 33 29.91 1013 10 16 N/A
6:35 pm 18:35 Sunny 77 25 41 4.8 27 27 N 18 30 29.91 1013 10 16 N/A
6:55 pm 18:55 Sunny 76 24.6 40 4.4 27 27 N 20 31 29.91 1013 10 16 N/A
7:15 pm 19:15 Sunny 76 24.2 39 4.1 27 27 N 16 26 29.91 1013 10 16 N/A
7:35 pm 19:35 Sunny 75 24 41 4.8 29 29 N 15 24 29.91 1013 10 16 N/A
7:55 pm 19:55 Sunny 74 23.5 42 5.4 31 31 N 14 22 29.94 1014 10 16 N/A
8:15 pm 20:15 Sunny 73 22.7 44 6.5 35 35 N 8 13 29.94 1014 10 16 N/A
8:35 pm 20:35 Sunny 70 21.2 46 7.8 42 42 N 6 9 29.94 1014 10 16 N/A
8:55 pm 20:55 Sunny 68 20 47 8.2 47 47 N 7 11 30.00 1016 10 16 N/A
9:15 pm 21:15 Clear 65 18.1 48 8.7 54 54 N 7 11 30.00 1016 10 16 N/A
9:35 pm 21:35 Clear 63 17.3 48 9 58 58 N 8 13 30.00 1016 10 16 N/A
9:55 pm 21:55 Clear 62 16.7 48 8.7 59 59 N 7 11 30.03 1017 10 16 N/A
10:15 pm 22:15 Clear 62 16.8 48 9 60 60 NNW 3 6 30.03 1017 10 16 N/A
10:35 pm 22:35 Clear 58 14.7 49 9.2 70 70 NNW 5 7 30.06 1018 10 16 N/A
10:55 pm 22:55 Clear 58 14.3 48 9 71 71 NNW 5 7 30.03 1017 10 16 N/A
11:15 pm 23:15 Clear 58 14.5 48 9 70 70 NNW 5 7 30.03 1017 10 16 N/A
11:35 pm 23:35 Clear 57 13.7 48 9 73 73 NW 6 9 30.06 1018 10 16 N/A
11:55 pm 23:55 Clear 56 13.2 48 9 76 76 N 7 11 30.06 1018 10 16 N/A

Powered by AerisWeather